Temp
-24 -24 -23 -23 -23 -24 -23 -23 -23 -22 -23 -23 -22 -21 -20 -21 -22 -20 -20 -20 -21 -20 -21 -21 -21 -20 -19 -19 -19 -19 -19 -19 -18 -19 -20 -20 -20 -20 -20 -21 -21 -21 -21 -20
-25 -25 -24 -24 -24 -24 -24 -24 -24 -24 -24 -23 -22 -22 -22 -22 -23 -21 -21 -22 -22 -21 -21 -22 -21 -21 -21 -20 -20 -19 -20 -20 -19 -19 -20 -21 -21 -20 -20 -21 -21 -20 -21 -19
-25 -25 -25 -25 -25 -24 -24 -24 -24 -24 -24 -23 -23 -23 -23 -23 -23 -22 -21 -22 -22 -22 -22 -22 -21 -21 -21 -22 -20 -20 -20 -21 -21 -20 -20 -21 -21 -20 -20 -21 -21 -21 -20 -21
-26 -26 -26 -25 -25 -24 -25 -25 -25 -24 -24 -23 -24 -24 -24 -23 -23 -23 -23 -22 -23 -23 -23 -23 -21 -22 -22 -22 -21 -21 -21 -21 -21 -21 -21 -21 -21 -20 -21 -21 -21 -22 -21 -21
-27 -26 -26 -26 -26 -26 -25 -25 -25 -25 -24 -25 -24 -24 -24 -24 -24 -23 -23 -23 -23 -23 -23 -23 -23 -22 -21 -21 -22 -22 -22 -22 -22 -21 -21 -21 -20 -20 -20 -21 -21 -21 -21 -21
-27 -27 -27 -26 -26 -26 -25 -25 -25 -25 -25 -24 -25 -24 -24 -24 -24 -24 -23 -24 -23 -24 -23 -23 -22 -22 -23 -23 -23 -23 -22 -22 -22 -20 -22 -21 -20 -20 -21 -21 -21 -22 -22 -22
-28 -28 -27 -27 -27 -26 -26 -25 -25 -25 -25 -24 -24 -25 -25 -24 -24 -24 -24 -25 -24 -24 -23 -22 -23 -23 -24 -24 -23 -23 -22 -22 -22 -21 -21 -21 -20 -21 -22 -21 -21 -22 -23 -23
-29 -28 -28 -28 -28 -27 -26 -26 -26 -25 -25 -24 -25 -25 -25 -25 -25 -24 -25 -25 -24 -24 -23 -24 -24 -24 -24 -23 -23 -23 -22 -23 -22 -22 -22 -21 -21 -22 -22 -21 -21 -23 -23 -23
-29 -29 -29 -28 -28 -28 -27 -26 -26 -26 -26 -25 -25 -25 -25 -25 -25 -24 -24 -24 -24 -25 -24 -25 -24 -24 -24 -23 -23 -23 -23 -23 -22 -22 -21 -21 -22 -23 -23 -22 -22 -22 -22 -23
-29 -29 -29 -29 -28 -28 -27 -26 -26 -26 -26 -26 -26 -25 -25 -25 -25 -24 -25 -25 -25 -25 -24 -24 -24 -23 -24 -23 -23 -23 -22 -23 -22 -23 -23 -22 -23 -23 -23 -23 -23 -23 -23 -23
-29 -29 -29 -29 -28 -28 -27 -27 -26 -26 -26 -26 -26 -25 -25 -25 -25 -25 -25 -26 -25 -24 -24 -24 -24 -24 -24 -23 -23 -23 -23 -23 -23 -23 -23 -22 -23 -24 -23 -23 -23 -23 -23 -23
-31 -29 -29 -29 -28 -28 -27 -27 -27 -26 -26 -26 -26 -26 -26 -26 -26 -26 -26 -25 -26 -25 -25 -24 -24 -24 -24 -23 -23 -23 -23 -23 -23 -23 -23 -23 -23 -23 -23 -23 -23 -23 -23 -23
-32 -29 -28 -28 -28 -28 -27 -27 -27 -27 -26 -26 -26 -27 -27 -26 -26 -26 -26 -26 -26 -26 -25 -25 -24 -24 -24 -24 -24 -23 -23 -23 -23 -23 -23 -23 -23 -23 -23 -23 -23 -23 -23 -23
-31 -28 -28 -28 -28 -28 -27 -27 -27 -27 -26 -26 -26 -26 -27 -27 -26 -26 -26 -26 -26 -26 -26 -25 -24 -24 -24 -24 -24 -24 -24 -23 -23 -23 -23 -23 -23 -23 -23 -23 -23 -23 -23 -23
-29 -28 -28 -28 -27 -27 -27 -27 -27 -27 -26 -26 -26 -27 -27 -27 -26 -26 -26 -26 -26 -26 -25 -25 -24 -24 -24 -24 -24 -23 -24 -24 -24 -23 -23 -23 -24 -23 -23 -22 -23 -23 -23 -23
-28 -28 -28 -28 -27 -27 -27 -27 -27 -26 -26 -26 -26 -27 -27 -27 -27 -26 -26 -26 -26 -25 -25 -25 -25 -25 -25 -24 -23 -24 -24 -24 -24 -23 -23 -23 -23 -23 -23 -23 -23 -23 -23 -23
-28 -28 -27 -27 -27 -27 -27 -26 -27 -26 -26 -27 -27 -27 -27 -27 -27 -26 -26 -26 -26 -26 -25 -25 -25 -25 -25 -24 -23 -24 -24 -24 -24 -23 -23 -23 -23 -23 -23 -23 -23 -23 -23 -23
-28 -27 -27 -27 -27 -27 -27 -27 -27 -27 -27 -27 -27 -27 -27 -27 -27 -27 -26 -26 -26 -25 -25 -25 -25 -25 -25 -24 -24 -24 -23 -24 -24 -23 -23 -23 -23 -23 -23 -23 -23 -23 -23 -24
-27 -27 -27 -27 -27 -27 -26 -27 -27 -27 -27 -26 -26 -27 -27 -27 -27 -27 -26 -26 -26 -26 -25 -25 -25 -25 -24 -24 -24 -24 -24 -24 -24 -24 -24 -24 -24 -24 -24 -24 -24 -24 -24 -24
-27 -27 -27 -27 -27 -27 -26 -26 -26 -26 -26 -26 -27 -27 -27 -27 -27 -27 -27 -27 -26 -26 -26 -26 -25 -24 -25 -24 -24 -24 -24 -24 -24 -24 -24 -24 -24 -24 -24 -24 -24 -24 -24 -24
-27 -27 -27 -27 -27 -26 -26 -26 -26 -26 -26 -27 -27 -27 -27 -27 -27 -27 -26 -26 -26 -25 -25 -25 -25 -25 -25 -24 -24 -24 -24 -24 -24 -24 -24 -24 -25 -25 -25 -25 -25 -25 -25 -24
-28 -27 -27 -27 -27 -26 -26 -26 -26 -27 -27 -27 -27 -27 -27 -27 -27 -27 -26 -26 -26 -26 -25 -25 -25 -25 -25 -25 -25 -25 -24 -24 -24 -24 -24 -25 -25 -25 -25 -25 -25 -25 -24 -24
-27 -27 -27 -27 -27 -26 -26 -27 -27 -27 -27 -27 -28 -27 -27 -27 -27 -26 -26 -26 -25 -26 -26 -25 -25 -25 -25 -25 -25 -25 -24 -24 -24 -25 -25 -25 -25 -25 -25 -25 -25 -25 -24 -24
-27 -27 -27 -27 -26 -26 -27 -27 -28 -27 -27 -27 -27 -27 -27 -27 -26 -26 -26 -26 -26 -26 -25 -25 -25 -25 -25 -25 -25 -24 -24 -25 -25 -25 -25 -25 -25 -25 -25 -25 -25 -24 -24 -24
-28 -28 -28 -28 -28 -28 -28 -28 -27 -27 -27 -27 -27 -26 -26 -26 -26 -26 -26 -26 -25 -25 -25 -25 -25 -25 -25 -25 -24 -24 -25 -25 -25 -25 -25 -25 -25 -25 -25 -24 -24 -24 -24 -24
-29 -28 -29 -29 -28 -28 -28 -28 -27 -27 -27 -27 -27 -27 -26 -26 -26 -26 -26 -26 -25 -25 -25 -25 -25 -25 -25 -25 -25 -25 -25 -25 -25 -25 -25 -25 -25 -25 -25 -25 -25 -25 -25 -25
-29 -29 -29 -28 -28 -28 -28 -27 -27 -27 -27 -27 -27 -26 -26 -26 -26 -26 -26 -26 -26 -26 -26 -25 -26 -25 -25 -25 -25 -25 -25 -25 -25 -25 -25 -25 -25 -25 -25 -25 -25 -25 -25 -25
Height
5553 5560 5566 5572 5576 5578 5579 5582 5590 5596 5594 5599 5605 5616 5624 5629 5624 5632 5636 5640 5640 5649 5652 5651 5653 5656 5655 5659 5664 5665 5667 5668 5669 5672 5674 5673 5672 5674 5672 5667 5667 5665 5661 5662
5540 5546 5552 5558 5564 5567 5569 5571 5576 5578 5578 5586 5596 5605 5610 5612 5616 5619 5626 5629 5629 5634 5639 5640 5644 5647 5649 5647 5653 5654 5657 5655 5659 5662 5663 5662 5660 5662 5660 5656 5654 5656 5651 5657
5525 5531 5539 5546 5553 5557 5558 5562 5563 5568 5570 5580 5586 5591 5597 5601 5606 5609 5612 5617 5619 5626 5629 5629 5633 5638 5640 5641 5642 5642 5645 5648 5649 5654 5653 5649 5651 5654 5652 5648 5647 5642 5645 5641
5511 5517 5525 5532 5539 5544 5546 5550 5554 5562 5566 5571 5576 5580 5587 5592 5594 5599 5601 5606 5610 5614 5616 5620 5624 5628 5630 5632 5634 5634 5635 5637 5642 5645 5641 5639 5643 5643 5642 5638 5638 5633 5635 5631
5498 5504 5510 5518 5526 5530 5532 5541 5549 5554 5559 5561 5565 5570 5578 5583 5586 5587 5593 5596 5601 5601 5607 5613 5616 5617 5619 5621 5627 5630 5631 5630 5631 5635 5630 5629 5632 5632 5630 5632 5630 5623 5621 5621
5483 5491 5498 5505 5512 5517 5518 5534 5541 5545 5549 5554 5558 5564 5569 5575 5575 5576 5583 5586 5590 5593 5599 5603 5607 5610 5613 5617 5620 5620 5622 5622 5622 5628 5620 5620 5624 5624 5623 5621 5618 5614 5611 5612
5468 5475 5483 5491 5499 5507 5517 5527 5534 5537 5541 5547 5552 5556 5561 5565 5568 5574 5577 5579 5583 5587 5592 5595 5598 5602 5606 5608 5611 5614 5614 5612 5611 5615 5610 5611 5615 5612 5611 5608 5606 5606 5603 5604
5452 5460 5468 5478 5489 5498 5508 5519 5527 5531 5535 5540 5544 5550 5554 5558 5561 5565 5571 5573 5576 5579 5583 5588 5591 5594 5598 5603 5605 5605 5605 5605 5604 5604 5603 5605 5602 5602 5598 5598 5601 5599 5598 5599
5437 5446 5455 5466 5478 5490 5500 5511 5519 5526 5529 5535 5538 5542 5547 5551 5555 5559 5562 5564 5566 5572 5574 5579 5583 5587 5592 5596 5596 5598 5598 5598 5597 5595 5595 5594 5595 5593 5590 5592 5595 5593 5594 5591
5421 5431 5443 5456 5469 5482 5492 5505 5513 5519 5523 5529 5531 5537 5541 5544 5548 5552 5554 5558 5561 5565 5570 5573 5578 5582 5586 5587 5590 5590 5590 5590 5590 5589 5587 5586 5588 5585 5585 5588 5591 5588 5587 5587
5401 5416 5431 5446 5461 5474 5487 5500 5506 5513 5518 5521 5527 5531 5534 5538 5543 5546 5551 5554 5556 5560 5564 5569 5573 5575 5579 5580 5583 5583 5583 5583 5583 5583 5583 5583 5583 5582 5583 5583 5579 5580 5581 5580
5385 5401 5421 5439 5454 5468 5480 5492 5503 5509 5512 5519 5523 5526 5530 5535 5540 5543 5546 5551 5553 5555 5559 5564 5566 5570 5572 5574 5576 5577 5577 5579 5578 5579 5579 5578 5579 5578 5578 5577 5575 5575 5574 5573
5378 5392 5413 5433 5450 5463 5477 5491 5499 5502 5507 5514 5518 5521 5526 5529 5534 5538 5541 5544 5548 5551 5553 5558 5560 5563 5566 5568 5570 5571 5572 5572 5573 5573 5574 5573 5571 5573 5573 5573 5571 5570 5569 5567
5373 5390 5412 5431 5447 5460 5475 5487 5491 5496 5502 5507 5512 5515 5519 5523 5527 5532 5536 5538 5542 5545 5548 5551 5554 5558 5560 5562 5563 5564 5566 5566 5566 5565 5566 5565 5566 5566 5567 5567 5564 5564 5564 5561
5377 5397 5415 5431 5447 5462 5474 5482 5487 5491 5497 5502 5506 5510 5514 5517 5521 5526 5530 5532 5536 5539 5541 5544 5549 5553 5554 5555 5556 5560 5560 5560 5559 5560 5560 5560 5561 5560 5560 5561 5560 5558 5558 5556
5389 5405 5420 5434 5448 5461 5470 5477 5484 5488 5492 5495 5498 5504 5508 5513 5515 5520 5524 5527 5530 5532 5534 5540 5543 5547 5546 5546 5549 5556 5555 5552 5552 5552 5553 5554 5553 5554 5553 5553 5552 5552 5551 5551
5399 5413 5425 5438 5451 5461 5470 5478 5483 5484 5487 5490 5494 5499 5502 5507 5510 5513 5517 5520 5524 5526 5529 5532 5537 5540 5536 5537 5544 5549 5547 5547 5548 5546 5547 5547 5546 5546 5546 5544 5546 5545 5544 5544
5411 5423 5432 5444 5454 5461 5467 5472 5475 5479 5483 5486 5488 5493 5497 5501 5505 5509 5513 5516 5518 5519 5521 5525 5529 5530 5528 5529 5539 5538 5539 5542 5540 5539 5538 5538 5537 5537 5537 5537 5538 5537 5537 5536
5419 5427 5436 5445 5452 5458 5464 5469 5473 5477 5480 5480 5483 5486 5490 5494 5499 5503 5508 5509 5510 5512 5513 5517 5519 5521 5522 5529 5530 5532 5533 5533 5531 5530 5529 5527 5527 5527 5528 5528 5529 5529 5529 5529
5426 5433 5440 5446 5452 5458 5463 5468 5470 5473 5473 5475 5478 5479 5482 5488 5493 5498 5502 5503 5505 5505 5510 5510 5512 5516 5519 5521 5525 5525 5524 5523 5521 5520 5518 5517 5517 5518 5518 5519 5520 5521 5522 5523
5433 5438 5444 5449 5454 5459 5461 5464 5467 5468 5471 5473 5473 5475 5479 5483 5489 5493 5496 5499 5501 5503 5507 5507 5508 5511 5514 5516 5516 5517 5517 5514 5512 5509 5508 5507 5509 5510 5512 5512 5514 5516 5517 5518
5438 5443 5446 5450 5454 5456 5459 5460 5463 5465 5467 5469 5470 5473 5477 5482 5486 5490 5494 5496 5498 5501 5502 5502 5504 5508 5509 5509 5511 5511 5509 5506 5503 5501 5499 5499 5502 5504 5506 5507 5509 5510 5512 5513
5438 5442 5445 5448 5451 5452 5454 5457 5460 5463 5464 5467 5469 5471 5474 5478 5482 5486 5488 5490 5494 5495 5496 5498 5503 5503 5502 5504 5504 5503 5501 5498 5496 5495 5494 5495 5496 5498 5500 5502 5504 5505 5506 5507
5437 5440 5442 5444 5446 5447 5451 5455 5458 5461 5463 5467 5469 5472 5473 5477 5480 5483 5485 5487 5489 5490 5492 5495 5497 5496 5498 5498 5498 5496 5494 5492 5490 5489 5489 5489 5491 5493 5495 5496 5498 5499 5500 5500
5433 5436 5437 5439 5441 5445 5447 5450 5454 5458 5461 5465 5467 5470 5472 5474 5477 5479 5481 5482 5483 5486 5489 5490 5490 5492 5492 5492 5491 5489 5488 5486 5485 5484 5484 5484 5485 5486 5488 5489 5490 5491 5492 5492
5431 5434 5436 5438 5441 5443 5446 5449 5452 5455 5458 5462 5465 5466 5467 5470 5472 5474 5476 5478 5480 5482 5483 5484 5485 5485 5486 5485 5484 5483 5482 5481 5480 5480 5479 5479 5479 5480 5480 5481 5481 5482 5483 5483
5430 5432 5434 5438 5440 5442 5445 5447 5450 5453 5455 5458 5460 5462 5464 5466 5467 5469 5471 5474 5475 5476 5477 5478 5479 5479 5479 5478 5478 5477 5477 5476 5475 5474 5474 5473 5473 5473 5473 5473 5473 5473 5473 5473
Wind_Speed
49 48 47 47 50 47 50 54 57 58 58 59 57 55 51 44 48 47 46 47 47 41 38 37 39 39 42 42 41 40 36 39 40 34 30 31 31 31 29 32 35 36 39 39
52 52 52 50 49 50 50 46 48 50 56 56 54 49 47 48 48 49 46 45 47 44 43 43 42 40 38 40 40 40 33 35 36 36 32 29 32 32 34 37 37 37 41 38
52 53 53 52 45 35 40 39 44 40 43 45 48 47 48 50 51 50 51 49 50 45 44 44 43 38 36 36 38 40 35 30 33 33 31 32 31 30 32 36 39 43 41 44
50 52 52 51 50 55 36 32 45 39 36 38 44 48 46 47 49 50 51 50 49 43 41 42 38 34 38 38 37 37 35 34 31 27 33 36 33 32 33 39 42 45 44 48
49 52 53 53 54 56 68 36 37 35 34 39 43 44 42 41 42 48 48 49 45 42 39 33 35 38 40 40 32 28 29 32 32 32 35 35 34 34 37 37 41 44 42 37
52 54 56 55 54 55 50 47 30 39 34 38 39 41 41 38 39 37 38 38 37 38 33 36 40 37 31 27 26 29 30 31 33 26 32 33 31 32 36 37 37 33 35 30
51 54 57 58 54 57 58 52 37 39 38 35 36 38 38 37 33 30 34 35 34 35 35 35 32 28 28 31 30 26 29 33 35 29 35 35 34 39 34 36 35 28 29 26
50 54 58 57 54 51 59 43 48 40 34 33 34 29 31 33 32 30 34 39 44 42 40 33 26 27 28 25 27 29 32 33 33 34 38 36 40 29 30 29 23 25 30 29
52 53 56 54 51 52 56 46 39 40 34 30 30 29 31 32 31 33 36 41 42 36 33 28 29 29 27 25 26 28 29 29 33 36 37 35 23 18 22 25 20 23 20 23
57 55 54 53 49 52 54 46 40 35 25 24 28 29 27 28 30 27 26 26 28 26 26 25 26 23 23 24 24 26 27 26 23 21 23 23 14 20 20 19 19 20 20 22
64 61 57 53 50 52 52 33 33 32 26 23 20 23 25 24 26 22 22 26 26 25 23 24 22 23 22 24 21 23 23 18 23 21 20 16 11 17 19 19 24 16 20 25
53 66 59 55 51 49 51 36 40 29 23 24 22 21 20 25 24 23 20 22 18 23 23 22 23 22 20 19 18 14 17 18 21 21 20 21 17 19 20 19 21 21 25 26
44 63 60 54 49 46 44 39 37 27 28 25 25 26 27 30 30 29 28 26 19 22 25 23 23 21 19 17 17 19 19 20 22 21 17 20 17 21 21 19 20 22 22 24
41 61 56 52 48 50 43 40 34 33 28 26 25 27 29 29 29 30 28 28 29 28 25 24 25 23 23 20 20 23 22 23 23 27 19 20 23 21 19 21 22 24 24 25
46 54 53 50 45 42 45 38 37 31 28 30 28 27 32 34 32 31 28 29 29 29 31 29 26 22 22 24 27 21 22 26 26 23 21 21 18 25 25 23 26 27 27 26
50 51 48 53 40 39 49 50 38 29 32 31 30 28 31 32 32 30 28 29 30 33 32 28 25 22 26 28 29 23 24 32 24 25 25 25 28 28 23 24 27 32 32 27
51 49 48 39 42 42 36 31 27 29 28 24 23 30 31 30 30 30 30 31 31 32 32 30 27 27 33 33 25 18 25 26 26 28 29 31 31 31 29 30 30 31 29 26
44 37 41 43 36 31 27 21 18 17 16 18 24 30 33 32 32 32 32 32 34 36 36 37 33 31 32 34 21 22 23 23 27 29 29 30 34 36 34 36 32 30 28 26
43 39 35 33 27 21 17 14 13 15 18 20 20 26 36 38 35 35 34 36 35 34 33 27 27 27 29 23 24 23 26 28 31 30 30 31 30 32 32 31 30 29 26 22
31 29 28 25 21 18 17 14 11 13 18 18 15 21 28 33 31 27 26 25 23 22 19 24 24 22 24 24 22 25 29 29 30 33 31 30 28 27 27 26 25 22 17 15
25 21 17 17 16 12 9 11 13 16 14 9 13 17 18 20 21 20 17 15 17 17 15 18 19 19 19 19 24 25 26 30 34 31 25 22 20 19 20 19 17 16 17 17
17 16 16 14 13 10 13 16 16 12 10 11 20 19 22 21 24 17 15 14 17 20 16 18 19 15 17 21 21 23 28 31 28 25 20 19 18 16 20 20 19 18 18 17
17 14 13 13 17 19 20 14 8 7 8 10 12 18 24 28 25 22 21 22 25 21 19 18 14 17 21 21 23 26 30 28 24 22 18 18 22 19 20 22 24 26 25 23
18 19 19 19 21 25 14 9 11 12 11 9 8 16 20 26 21 25 23 21 21 21 20 17 16 20 21 23 25 29 28 23 21 20 18 19 23 23 23 25 26 26 26 26
16 16 18 17 18 12 14 16 17 13 5 10 9 10 16 17 19 22 23 23 23 21 18 17 22 22 21 24 27 26 22 20 19 19 18 18 22 24 25 27 28 29 29 30
17 13 11 10 10 11 14 14 13 14 14 15 17 14 16 20 21 24 24 24 21 20 20 18 19 21 22 23 23 22 21 20 18 18 19 20 21 23 26 28 29 30 30 31
13 17 14 5 9 9 14 11 13 13 10 11 12 12 13 15 20 22 22 19 18 20 20 19 19 19 20 21 22 22 22 22 21 20 19 20 21 22 24 25 27 27 28 28
Wind_Direction
252 252 250 252 254 257 251 257 255 255 254 254 255 257 260 253 246 247 243 239 243 246 252 248 247 255 256 255 259 263 264 268 270 271 266 265 272 275 272 274 275 272 277 288
244 243 242 244 244 243 259 253 255 249 248 247 251 251 247 242 244 245 239 242 243 247 251 246 245 251 257 266 265 267 268 267 267 266 270 269 265 268 270 268 275 283 277 292
243 241 241 240 238 227 236 248 247 248 251 249 245 243 242 245 246 245 244 243 245 251 253 253 252 254 253 261 264 265 267 262 268 276 279 274 270 271 266 269 276 280 286 288
242 243 238 235 229 225 229 244 252 245 256 252 250 244 246 249 249 247 247 248 251 255 253 252 256 252 259 258 254 260 269 274 273 269 269 272 271 269 265 269 278 278 287 286
242 241 237 237 229 235 239 233 245 254 254 252 250 248 248 252 253 251 249 251 253 248 255 253 255 254 254 255 263 266 264 268 269 272 273 272 271 269 268 277 279 280 288 288
237 234 236 234 228 227 238 226 248 260 249 249 249 249 250 254 247 246 252 255 251 254 249 249 254 258 258 260 260 261 263 266 268 262 273 272 277 277 277 277 280 283 282 285
235 232 231 231 227 227 233 232 243 256 247 244 246 248 247 247 248 248 251 249 258 262 261 252 248 250 251 253 255 255 262 272 277 273 275 274 285 280 284 279 276 272 272 274
234 230 230 228 225 222 223 224 232 243 246 239 240 244 247 247 252 250 252 259 261 260 257 248 249 246 244 243 246 256 263 270 274 273 275 280 281 290 276 279 282 267 271 272
234 228 228 225 223 223 221 211 219 237 238 230 237 241 248 256 258 254 259 250 253 248 255 249 245 238 240 243 248 260 265 267 272 278 277 277 291 281 271 275 266 285 271 289
232 225 223 220 216 214 216 213 220 212 207 225 235 246 251 245 247 250 241 226 229 234 232 232 228 229 244 250 261 268 267 273 274 277 286 294 284 258 261 261 267 264 278 294
220 221 216 213 209 209 207 195 218 211 207 218 232 241 250 246 231 229 232 228 235 231 219 225 236 240 250 254 262 267 265 263 269 266 281 293 281 261 271 270 274 273 292 299
213 210 209 206 203 205 207 201 219 211 211 223 233 238 233 237 228 229 219 216 222 229 232 233 236 243 247 252 248 252 257 262 269 266 273 275 285 291 293 267 292 284 299 303
208 202 199 197 196 200 190 203 218 202 216 231 238 237 232 227 222 223 224 225 219 232 234 234 236 239 231 236 243 240 254 262 261 263 266 275 271 288 282 281 291 296 305 303
198 191 187 186 187 196 192 197 198 212 223 242 240 234 232 232 225 231 233 232 224 232 237 237 239 234 237 232 234 235 244 253 259 258 265 259 282 283 277 285 291 295 303 301
180 175 174 176 173 179 188 199 209 218 230 241 234 227 227 232 235 233 231 230 229 233 240 243 240 236 245 241 238 235 249 259 262 263 270 270 273 273 279 276 284 291 297 302
160 165 169 175 176 180 191 206 218 226 236 238 231 228 227 230 234 232 227 227 233 237 241 243 244 252 261 248 239 239 252 259 263 269 272 273 272 265 267 275 281 287 289 299
156 162 166 164 182 186 195 206 216 227 237 240 234 223 227 227 229 231 231 235 239 244 246 250 256 257 260 245 237 239 249 258 261 269 270 266 263 263 270 283 284 284 284 291
153 166 165 172 179 182 187 186 199 216 233 237 229 223 225 226 228 231 235 241 245 248 252 255 262 255 248 240 241 253 258 270 275 279 277 266 264 267 269 270 277 277 282 284
149 151 157 161 162 163 164 178 206 231 242 248 241 233 226 225 227 233 241 247 252 255 251 251 242 235 239 248 249 261 270 274 276 279 279 272 265 265 267 268 268 271 274 271
146 155 159 160 160 174 188 203 234 262 259 260 252 238 228 223 228 235 241 236 245 252 235 228 233 239 235 245 258 268 276 283 286 289 284 271 262 259 263 265 262 262 250 236
149 156 159 170 179 189 213 250 268 273 269 238 225 218 200 207 207 203 204 230 244 232 221 233 242 241 245 259 266 278 287 290 293 292 280 266 254 251 261 248 235 233 245 249
156 170 180 192 205 230 258 270 271 271 239 224 218 217 197 193 199 203 225 211 232 243 243 248 250 259 259 261 273 286 291 294 294 287 267 245 226 240 245 231 230 237 245 249
186 203 219 231 238 251 273 271 239 214 200 188 205 208 202 197 196 209 204 207 218 240 240 245 250 246 255 269 280 291 296 299 289 285 261 243 229 232 235 251 251 244 247 253
216 222 225 235 243 255 255 223 192 191 169 178 184 226 219 204 214 208 213 222 232 237 240 242 243 251 262 274 282 292 296 294 286 281 268 255 241 240 245 250 251 260 264 264
204 212 221 224 235 236 202 189 185 187 177 171 170 194 219 227 229 222 228 237 242 247 252 245 251 261 273 282 287 292 293 290 285 281 275 263 249 247 251 255 257 263 267 269
209 219 231 198 192 191 182 189 193 185 193 236 217 230 217 211 220 232 236 244 258 256 253 252 256 267 276 283 288 291 290 288 286 279 277 272 262 256 254 254 258 263 267 271
235 186 159 177 201 205 207 204 205 184 186 200 209 220 217 218 225 229 236 247 245 242 246 254 264 273 279 283 286 287 286 285 285 284 280 276 274 272 270 264 260 261 263 267